Watts Bar Lake Weather Center

Moon Phase Calendar



Watts Bar Lake Water Level
Online Cameras

 


      

Current Conditions in Rockwood
6/17/2024 10:35:41 AM

85°F
Feels Like 92
Clouds
Humidity
70%
Pressure
30.15"
Wind
5 mph (SW)
Dew Point
74°F
UV Index
6/10 (High)
Visibility
6 mi

Hourly Forecast

Date & Time Mon, Jun 17
10:00 AM
Mon, Jun 17
11:00 AM
Mon, Jun 17
12:00 PM
Mon, Jun 17
1:00 PM
Mon, Jun 17
2:00 PM
Mon, Jun 17
3:00 PM
Mon, Jun 17
4:00 PM
Mon, Jun 17
5:00 PM
Mon, Jun 17
6:00 PM
Mon, Jun 17
7:00 PM
Mon, Jun 17
8:00 PM
Mon, Jun 17
9:00 PM
Mon, Jun 17
10:00 PM
Mon, Jun 17
11:00 PM
Tue, Jun 18
12:00 AM
Tue, Jun 18
1:00 AM
Tue, Jun 18
2:00 AM
Tue, Jun 18
3:00 AM
Tue, Jun 18
4:00 AM
Tue, Jun 18
5:00 AM
Tue, Jun 18
6:00 AM
Tue, Jun 18
7:00 AM
Tue, Jun 18
8:00 AM
Tue, Jun 18
9:00 AM
Tue, Jun 18
10:00 AM
Tue, Jun 18
11:00 AM
Tue, Jun 18
12:00 PM
Tue, Jun 18
1:00 PM
Tue, Jun 18
2:00 PM
Tue, Jun 18
3:00 PM
Tue, Jun 18
4:00 PM
Tue, Jun 18
5:00 PM
Tue, Jun 18
6:00 PM
Tue, Jun 18
7:00 PM
Tue, Jun 18
8:00 PM
Tue, Jun 18
9:00 PM
Tue, Jun 18
10:00 PM
Tue, Jun 18
11:00 PM
Wed, Jun 19
12:00 AM
Wed, Jun 19
1:00 AM
Wed, Jun 19
2:00 AM
Wed, Jun 19
3:00 AM
Wed, Jun 19
4:00 AM
Wed, Jun 19
5:00 AM
Wed, Jun 19
6:00 AM
Wed, Jun 19
7:00 AM
Wed, Jun 19
8:00 AM
Wed, Jun 19
9:00 AM
Condition
Clouds

Clouds

Clouds

Clouds

Clouds

Clouds

Clouds

Clouds

Rain

Rain

Clouds

Clouds

Rain

Rain

Clouds

Clouds

Clouds

Clouds

Clouds

Clouds

Clouds

Clouds

Clouds

Clouds

Clouds

Clouds

Clouds

Clouds

Clouds

Clouds

Clouds

Clouds

Clouds

Clouds

Clouds

Clouds

Clouds

Clouds

Clouds

Clouds

Clouds

Clouds

Clouds

Clouds

Clouds

Clouds

Clouds

Clouds
Temperature 84°F85°F85°F85°F86°F89°F93°F92°F78°F75°F75°F74°F73°F73°F73°F72°F71°F71°F70°F69°F69°F69°F72°F75°F79°F82°F84°F86°F88°F89°F89°F83°F83°F82°F80°F79°F76°F76°F74°F72°F70°F69°F68°F67°F66°F66°F70°F73°F
Feels Like 90°F92°F91°F91°F91°F94°F96°F96°F79°F76°F77°F76°F75°F74°F74°F73°F72°F72°F71°F70°F70°F70°F73°F76°F79°F85°F88°F90°F92°F93°F92°F88°F87°F87°F83°F79°F76°F76°F74°F72°F70°F69°F68°F67°F66°F66°F70°F73°F
Cloudiness 28%20%27%38%50%68%71%81%86%89%91%100%100%100%100%99%99%100%100%100%100%100%100%94%97%98%98%99%99%100%100%100%100%100%100%100%100%100%100%100%100%100%100%100%100%100%100%100%
Visibility 6 mi6 mi6 mi6 mi6 mi6 mi6 mi6 mi6 mi6 mi6 mi6 mi6 mi6 mi6 mi6 mi6 mi6 mi6 mi6 mi6 mi6 mi6 mi6 mi6 mi6 mi6 mi6 mi6 mi6 mi6 mi6 mi6 mi6 mi6 mi6 mi6 mi6 mi6 mi6 mi6 mi6 mi6 mi6 mi6 mi6 mi6 mi6 mi
Precipitation 0%0%0%0%0%0%0%0%45%88%75%0%69%92%79%64%51%0%0%0%0%0%0%0%0%0%0%0%0%0%0%0%0%0%0%0%0%0%0%0%0%0%0%0%0%0%0%0%
Humidity 71%70%67%64%59%51%42%43%82%89%90%92%92%92%90%89%89%89%90%91%92%93%90%83%72%64%60%55%51%48%48%68%69%70%66%62%68%68%70%74%74%75%75%76%75%78%75%66%
Dew Point 73°F74°F73°F72°F70°F69°F66°F66°F71°F70°F71°F71°F70°F69°F68°F68°F67°F67°F66°F66°F66°F66°F68°F69°F68°F68°F68°F68°F67°F67°F66°F70°F71°F71°F67°F64°F64°F63°F63°F62°F61°F60°F59°F59°F57°F58°F61°F60°F
Pressure 30.15"30.15"30.15"30.15"30.12"30.09"30.06"30.03"30.06"30.06"30.06"30.09"30.12"30.12"30.12"30.12"30.12"30.12"30.12"30.12"30.15"30.15"30.18"30.18"30.18"30.18"30.15"30.15"30.12"30.12"30.09"30.09"30.09"30.09"30.12"30.15"30.15"30.18"30.18"30.18"30.18"30.18"30.18"30.21"30.24"30.24"30.24"30.27"
Wind Speed 2.6 mph4.4 mph5.4 mph5.7 mph5.4 mph4 mph1.9 mph2.8 mph5.8 mph5.6 mph4.8 mph5 mph2.4 mph2.5 mph0.8 mph1.1 mph1.7 mph1.1 mph0.7 mph1 mph0.1 mph0.4 mph0.4 mph2.2 mph4 mph5.5 mph5.5 mph4.9 mph4.8 mph4.5 mph3.8 mph2.1 mph1.9 mph3.7 mph6 mph5.2 mph3.6 mph1.5 mph1 mph0.7 mph1.3 mph1.5 mph1.7 mph0.8 mph1.2 mph1.4 mph1.2 mph2.1 mph
Wind
Direction
177°
S
167°
SSE
164°
SSE
160°
SSE
144°
SE
146°
SE
181°
S
194°
SSW
134°
SE
22°
NNE
25°
NNE
28°
NNE
29°
NNE
51°
NE
70°
ENE
202°
SSW
185°
S
174°
S
127°
SE
72°
ENE
346°
NNW
96°
E
127°
SE
188°
S
185°
S
167°
SSE
153°
SSE
143°
SE
116°
ESE
100°
E
120°
ESE
173°
S
210°
SSW
204°
SSW
206°
SSW
217°
SW
255°
WSW
273°
W
182°
S
229°
SW
46°
NE
323°
NW
201°
SSW
255°
WSW
281°
W
290°
WNW
81°
E
184°
S

Daily Forecast

Date High Low Precip. Humidity
Today
Jun 17

Rain
93 °F
68 °F
92%
64%
Tuesday
Jun 18

Clouds
89 °F
69 °F
79%
55%
Wednesday
Jun 19

Clouds
88 °F
66 °F
0%
51%
Thursday
Jun 20

Clouds
91 °F
66 °F
0%
40%
Friday
Jun 21

Clear
92 °F
70 °F
0%
41%
Saturday
Jun 22

Clear
94 °F
73 °F
0%
37%
Sunday
Jun 23

Clouds
91 °F
72 °F
0%
40%
Monday
Jun 24

Rain
92 °F
70 °F
100%
45%
Tuesday
Jun 25

Clouds
92 °F
68 °F
0%
44%
Wednesday
Jun 26

Rain
94 °F
67 °F
42%
39%
Thursday
Jun 27

Rain
84 °F
70 °F
100%
74%
Friday
Jun 28

Clear
84 °F
64 °F
80%
35%
Saturday
Jun 29

Clear
87 °F
56 °F
0%
30%
Sunday
Jun 30

Clear
94 °F
61 °F
0%
34%
Monday
Jul 1

Clear
98 °F
70 °F
0%
32%
Tuesday
Jul 2

Clear
100 °F
73 °F
0%
32%

Temperature 8-14 Day Outlook



Precipitation 8-14 Day Outlook




Quick Links
Watts Bar Lake News
Watts Bar Lake Photos
Watts Bar Lake Videos




About Us
Contact Us
Site Map
Search Site
Advertise With Us
   
www.WattsBar.info
THE WATTS BAR LAKE WEBSITE

Copyright 2024, Lakes Online
Privacy    |    Legal